This is the latest recevied weather packets stored in our database for station/object W8RD. If no packets are shown the sender has not sent any weather packets the latest 10 day(s).
| Time | Temp. | Humidity | Pressure | Rain* | Wind** | Luminosity | Snow |
|---|---|---|---|---|---|---|---|
| 1777827052 | 25.56° C | 55% | 1019.1 hPa | 0 mm | - | 644 W/m² | - |
| 1777826452 | 25° C | 57% | 1019.5 hPa | 0 mm | - | 268 W/m² | - |
| 1777825852 | 25° C | 55% | 1019.4 hPa | 0 mm | - | 156 W/m² | - |
| 1777825253 | 24.44° C | 58% | 1019.7 hPa | 0 mm | - | 135 W/m² | - |
| 1777824651 | 23.89° C | 59% | 1019.7 hPa | 0 mm | - | 83 W/m² | - |
| 1777824050 | 23.33° C | 60% | 1019.5 hPa | 0 mm | - | 54 W/m² | - |
| 1777823449 | 23.33° C | 62% | 1019.4 hPa | 0 mm | - | 52 W/m² | - |
| 1777822850 | 22.78° C | 64% | 1019.3 hPa | 0 mm | - | 159 W/m² | - |
| 1777822245 | 22.22° C | 65% | 1019.4 hPa | 0 mm | - | 48 W/m² | - |
| 1777821646 | 21.67° C | 67% | 1019.6 hPa | 0 mm | - | 63 W/m² | - |
| 1777821046 | 21.67° C | 67% | 1019.8 hPa | 0 mm | - | 101 W/m² | - |
| 1777820444 | 21.11° C | 69% | 1019.8 hPa | 0 mm | - | 79 W/m² | - |
| 1777819844 | 21.11° C | 69% | 1019.8 hPa | 0 mm | - | 101 W/m² | - |
| 1777819239 | 20.56° C | 70% | 1019.5 hPa | 0 mm | - | 93 W/m² | - |
| 1777818638 | 20.56° C | 68% | 1019.6 hPa | 0 mm | - | 114 W/m² | - |
| 1777818037 | 20.56° C | 69% | 1019.5 hPa | 0 mm | - | 119 W/m² | - |
| 1777817432 | 20° C | 72% | 1019.5 hPa | 0 mm | - | 87 W/m² | - |
| 1777816831 | 20° C | 72% | 1019.2 hPa | 0 mm | - | 113 W/m² | - |
| 1777816231 | 20° C | 74% | 1019.2 hPa | 0 mm | - | 112 W/m² | - |
| 1777815626 | 19.44° C | 74% | 1019 hPa | 0 mm | - | 106 W/m² | - |
| 1777815026 | 19.44° C | 74% | 1018.8 hPa | 0 mm | - | 111 W/m² | - |
| 1777814425 | 19.44° C | 77% | 1018.7 hPa | 0 mm | - | 102 W/m² | - |
| 1777813819 | 18.89° C | 80% | 1018.8 hPa | 0 mm | - | 98 W/m² | - |
| 1777813214 | 18.33° C | 80% | 1018.8 hPa | 0 mm | - | 78 W/m² | - |
| 1777812614 | 18.33° C | 81% | 1018.5 hPa | 0 mm | - | 76 W/m² | - |
* Rain latest hour (hover to see other rain measurements)
** Current wind speed in m/s (hover to see current wind gust speed)